STARLINK-35286, 65803

Orbit data source: Space-Track

STARLINK-35286, 65803 is a payload satellite owned by SpaceX/Seattle (US) in SSO that was launched on Fri, 26 Sep 2025 UTC via an FALCON 9 launch vehicle from the Air Force Western Test Range (AFWTR). Payload-class satellites include a variety of spacecraft equipped with specific instruments for various scientific and technological missions. These include communications satellites like Starlink; space stations such as the ISS; scientific satellites like the Hubble; Earth observation satellites from companies like Planet Labs, Umbra, and HawkEye 360; GPS; miniature CubeSats for education and research; and military/defense satellites.

Loading next visibility...
Identifier
65803, 2025-218N
Orbit
SSO
Country
Flag of USUS
Related business
Manufacturer
SpaceX/Seattle
Mission
Operational Commercial Communications
Bus & Motor
STARLINK V2MO, Unknown motor
Mass
575 kg wet, ~530 kg dry
Launch date (UTC)
2025-09-26 (9 months ago)
Launch vehicle
FALCON 9
Launch site
Air Force Western Test Range (AFWTR)
Object type
Payload
Rocket body
Debris
Shape & HBR
Box + 2 Pan, 17.7 m
Radar Cross Section
36.964 m², Large (>1 m²)

Expand to show TLE details & history
Last TLE update: 13 hours ago

TLE from 13 hours ago
0 STARLINK-35286
1 65803U 25218N   26171.35059931  .00004168  00000-0  29253-3 0  9995
2 65803  97.3406  32.9916 0002578  88.5971 271.5551 15.05665873 40414
Epoch: 2026-06-20T08:24Z
TLE epoch observation values (Epoch: 2026-06-20T08:24:51.780Z)
Latitude
-0.0001°
Longitude
-1.79062°
Altitude
552.487 km
Speed
7.586 km/s
True Right ascension
02h 11m 57s
True Declination
0° 00' 00"
Sunlit
Object was in daylight at epoch
Visualization orbit readout
Latitude
Unknown
Longitude
Unknown
Altitude
Unknown
Speed
Unknown
Apparent Right ascension
Unknown
Apparent Declination
Unknown
Sunlit
N/A
Visualization observer readout
Local Sidereal Time
08:42:04
Azimuth
Unknown
Elevation
Unknown
Doppler factor
Unknown
Orbital elements
Apogee altitude
548.23 km
Perigee altitude
544.66 km
Semi-major axis
6,924.582 km
Eccentricity
0.00026
Inclination
97.3406°
RAAN
32.9916°
Arg. of periapsis
88.5971°
True anomaly
271.52557°
Mean anomaly
271.5551°
Eccentric anomaly
271.54033°
Mean motion
3.76663 °/min
Orbital period
95.58 mins
BSTAR
0.00029253
Loading maneuver chart data...
Computing Atmospheric mass density...
Loading historical data...
Loading historical data...
Loading historical data...
Loading historical data...
Loading historical data...
Loading historical data...
Loading historical data...

Documentation

Showing up to 5 results
|